Other Public Products
Issued by NWS Grand Forks, ND

Home | Current Version | Previous Version | Graphics & Text | Print | Product List | Glossary On
Versions: 1 2 3 4 5 6 7 8 9 10 11 12 13 14 15 16 17 18 19 20 21 22 23 24 25 26 27 28 29 30 31 32 33 34 35 36 37 38 39 40 41 42 43 44 45 46 47 48 49 50
000
FPUS83 KFGF 021710
OPUFGF
PRAIRIE TO PINES WEATHER ROUNDUP
NATIONAL WEATHER SERVICE EASTERN NORTH DAKOTA/GRAND FORKS ND
1200 PM CDT WED SEP 02 2015

 **SATELLITE DATA USED TO AUGMENT SKY COVER AT AUTOMATED STATIONS**
 *****  WEATHER ACROSS EASTERN NORTH DAKOTA  *****

CITY           SKY/WX    TMP DP  RH WIND       PRES   REMARKS
GRAND FORKS    SUNNY     81  67  62 S12       29.81F
GRAND FORKS AF SUNNY     80  69  68 S13       29.82S
GRAND CITY NWS   N/A     79 N/A N/A S7          N/A
BUXTON         NOT AVBL
DEVILS LAKE    SUNNY     81  66  61 S10       29.80S
FARGO          SUNNY     83  67  58 S12       29.82S
WAHPETON ARPT  SUNNY     81  64  57 S12       29.83F
$$

 *****  WEATHER ACROSS CENTRAL AND WESTERN NORTH DAKOTA  *****

CITY           SKY/WX    TMP DP  RH WIND       PRES   REMARKS
JAMESTOWN      SUNNY     81  69  67 SE8       29.81F
BISMARCK       SUNNY     76  68  76 E8        29.79S
MINOT          SUNNY     84  65  52 E13       29.76S
MINOT AFB      SUNNY     85  68  56 E10       29.75S
GARRISON         N/A     82  66  58 SE6       29.78S
WILLISTON      SUNNY     86  61  42 S12       29.74S
DICKINSON      SUNNY     87  52  29 S14       29.78F
HETTINGER      SUNNY     85  56  37 SE8       29.82F
$$

 *****  OTHER OBSERVATIONS NORTHEAST NORTH DAKOTA  *****

CITY           SKY/WX    TMP DP  RH WIND       PRES   REMARKS
WALHALLA       FAIR      82  72  69 MISG      29.79S
LANGDON        FAIR      86  68  54 S12       29.82S
CAVALIER       FAIR      79  70  73 S8G16     29.80S
GRAFTON        FAIR      79  72  78 SE9       29.82S
CANDO          NOT AVBL
FORT TOTTEN      N/A     83  71  66 S7        29.95S
ROLLA            N/A     82  66  57 S9        29.81S
RUGBY          FAIR      82  68  61 E10       29.78S
 ***** THE ABOVE OBSERVATIONS ARE NON NWS ARE NOT QUALITY
        CONTROLLED AND MAY MIS-REPORT RAIN FOR SNOW...
$$

 *****  OTHER OBSERVATIONS SOUTHEAST NORTH DAKOTA *****

CITY           SKY/WX    TMP DP  RH WIND       PRES   REMARKS
COOPERSTOWN    NOT AVBL
VALLEY CITY    FAIR      79  73  83 SE10      29.82F
OAKES            N/A     82  77  83 E8        29.80F HX  91
GWINNER        FAIR      82  72  69 SE10      29.81F
SHEYENNE NWR     N/A     80  69  70 S9        29.95S
BUFFALO        NOT AVBL
WYNDMERE         N/A     82  70  65 SE8         N/A
 ***** THE ABOVE OBSERVATIONS ARE NON NWS ARE NOT QUALITY
       CONTROLLED AND MAY MIS-REPORT RAIN FOR SNOW...
$$

  *****  WEATHER ACROSS NORTHERN MINNESOTA  *****

CITY           SKY/WX    TMP DP  RH WIND       PRES   REMARKS
FLAG ISLAND    SUNNY     73  66  78 S5        29.87F
WARROAD        SUNNY     79  72  78 E7        29.88S
ROSEAU         SUNNY     82  72  69 S10G16    29.86S
HALLOCK        SUNNY     82  70  65 S13       29.80F
THF RVR FALLS  SUNNY     81  66  61 S10       29.86S
HALSTAD        NOT AVBL
FOSSTON        SUNNY     84  63  48 SE12G17   29.88S
BAUDETTE       MOSUNNY   81  69  67 SE10      29.90S
WASKISH          N/A     81  72  74 SE8       29.91S
CROOKSTON      SUNNY     81  64  57 S8        29.85S
$$
  *****  WEATHER ACROSS CENTRAL AND WEST MINNESOTA  *****

CITY           SKY/WX    TMP DP  RH WIND       PRES   REMARKS
BEMIDJI        SUNNY     82  65  56 E14G20    29.91F
PARK RAPIDS    SUNNY     83  63  50 SE14      29.91S
WADENA         SUNNY     79  64  61 SE10      29.90S
DETROIT LAKES  SUNNY     79  64  61 SE13      29.89R
MOORHEAD       SUNNY     82  66  57 SE13      29.83S
FERGUS FALLS   SUNNY     81  66  61 SE9       29.83F
ELBOW LAKE     FAIR      79  69  73 SE10      29.86R
MORRIS MN      SUNNY     81  70  69 SE10      29.84S
STAPLES        SUNNY     79  63  57 SE12      29.91S
WHEATON        SUNNY     79  68  69 SE12      29.84F
$$
  *****  WEATHER ELSEWHERE ACROSS MINNESOTA  *****

CITY           SKY/WX    TMP DP  RH WIND       PRES   REMARKS
DULUTH         CLOUDY    68  64  87 NE5       29.99F
INTRNTL FALLS  CLOUDY    77  67  71 SE14      29.94F
ELY            CLOUDY    66  63  88 SE5       30.00F
CLOQUET        CLOUDY    72  64  78 NE5       30.00F
BRAINERD       PTSUNNY   77  65  66 E8        29.93R
HIBBING        CLOUDY    70  64  81 VRB3      29.97F
ALEXANDRIA     SUNNY     78  68  71 E12       29.90R
SAINT CLOUD    PTSUNNY   75  69  81 SE7       29.91S
MINNEAPOLIS    CLOUDY    75  67  76 SE10      29.91S
$$

  *****  WEATHER ACROSS SOUTH DAKOTA  *****

CITY           SKY/WX    TMP DP  RH WIND       PRES   REMARKS
SIOUX FALLS    MOSUNNY   81  72  74 S10       29.85F
BROOKINGS      SUNNY     79  72  78 SE13      29.86S
WATERTOWN      SUNNY     83  70  64 S9        29.83F
HURON          SUNNY     82  70  66 S10G17    29.78F
SISSETON         N/A     81  68  64 S8        29.81F
ABERDEEN       SUNNY     82  70  66 SE8       29.79F
MITCHELL       SUNNY     83  71  67 SE9       29.80F
PIERRE         MOSUNNY   76  66  71 SE5       29.77S
MOBRIDGE       MOSUNNY   78  71  79 E10       29.76F
RAPID CITY     MOSUNNY   86  52  30 CALM      29.85S
$$

  *****  SOME WEATHER IN NEARBY STATES *****

CITY           SKY/WX    TMP DP  RH WIND       PRES   REMARKS
GLASGOW MT     SUNNY     78  46  32 SE7       29.67S
GREAT FALLS MT CLOUDY    68  35  29 W3        29.71S
CHEYENNE WY    SUNNY     83  38  20 W10G21    30.14S
SCOTTSBLUFF NE SUNNY     81  52  36 W8        29.98F
OMAHA NE       MOSUNNY   83  70  64 S18G28    29.92S
DES MOINES IA  MOSUNNY   82  67  60 SW20G28   29.95F
DAVENPORT IA   PTSUNNY   82  69  64 SW9       30.03S
CHICAGO IL     MOSUNNY   86  69  56 SW8       30.03F HX  90
EAU CLAIRE WI  CLOUDY    70  67  90 E7        29.95F
LA CROSSE WI   MOSUNNY   83  67  58 S10       29.95F
$$

  *****  SOME NATIONAL WEATHER *****

CITY           SKY/WX    TMP DP  RH WIND       PRES   REMARKS
LA GUARDIA NY  PTSUNNY   87  65  47 CALM      29.97F
RALEIGH NC     MOSUNNY   91  69  48 SW5       30.05F HX  96
ATLANTA GA     PTSUNNY   88  68  51 VRB6      30.11F HX  91
NEW ORLEANS LA CLOUDY    84  73  69 E7        30.08S HX  90
OKLAHOMA CITY  MOSUNNY   87  68  52 S16       30.04F HX  90
ALBUQUERQUE NM PTSUNNY   78  48  34 SW5       30.23S
SALT LAKE CITY MOSUNNY   83  47  28 S24G30    30.01S
LOS ANGELES CA PTSUNNY   70  62  76 W8        29.98S
BOISE ID       CLOUDY    77  39  25 NE7       29.88S
SEATTLE WA     MOSUNNY   60  51  72 SW9       29.91R
$$

*** WEATHER ACROSS MANITOBA...SASKATCHEWAN AND ONTARIO ***
                ***ONTARIO***

CITY           SKY/WX    TMP DP  RH WIND       PRES   REMARKS
GERALDTON      NOT AVBL
THUNDER BAY    PTSUNNY   70  59  68 VRB2      30.02S
SIOUX LOOKOUT  SUNNY     79  59  50 S8        29.96F
TORONTO        PTSUNNY   88  66  48 W12       29.98F HX  90
BIG TROUT LK   SUNNY     63  55  77 S9        29.90F
PICKLE LAKE    MOSUNNY   81  55  41 SW9       29.94S
DRYDEN         SUNNY     81  54  39 S16       29.94F
KENORA         PTSUNNY   77  68  73 S9G17     29.89F
$$
                *** MANITOBA***

CITY           SKY/WX    TMP DP  RH WIND       PRES   REMARKS
BRANDON        MOSUNNY   81  64  57 VRB5      29.78F
DAUPHIN        SUNNY     79  52  38 E6        29.77F
ISLAND LAKE    PTSUNNY   70  59  68 SE8       29.79S
PILOT MOUND      N/A     86  63  45 SE8         N/A
THE PAS        CLOUDY    64  52  63 NE5       29.79F
THOMPSON       CLOUDY    61  57  88 NW7       29.80R
WINNIPEG       MOSUNNY   82  70  65 S14       29.79S
LYNN LAKE      SUNNY     61  45  55 CALM      29.82F
CHURCHILL      CLOUDY    54  48  82 S17       29.84F
GILLAM         PTSUNNY   57  54  88 SE6       29.83R
$$
                ***SASKATCHEWAN***

CITY           SKY/WX    TMP DP  RH WIND       PRES   REMARKS
ESTEVAN        MOSUNNY   84  57  39 SE15G21   29.74F
KINDERSLEY     NOT AVBL
LLOYDMINSTER   PTSUNNY   64  46  52 SE13      29.58S
PRINCE ALBERT  PTSUNNY   66  50  55 SE17G23   29.67F
REGINA         PTSUNNY   81  48  32 SE21      29.69F



USA.gov is the U.S. government's official web portal to all federal, state and local government web resources and services.